[[{"header":{"parameterUnit":"m.s-1","parameterCategory":2,"la1":30.2992,"la2":30.254,"lo1":-89.0895,"lo2":-89.0443,"dy":0.0025,"dx":0.0025,"nx":19,"ny":19,"refTime":"2026-03-24T03:00:00:Z","depth":"0","parameterNumber":2,"parameterNumberName":"U-component_of_CURRENTS"},"data":[0,0,0,0.4249,0.4254,0.449,0.4491,0.4899,0.4903,0,0,0,0,0,0,0,0,0,0,0,0.4166,0.4167,0.4249,0.4255,0.449,0.4491,0.4898,0.4903,0,0,0,0,0,0,0,0,0,0,0,0.4165,0.4167,0.4168,0.4255,0.449,0.4492,0.4898,0.4696,0,0,0,0,0,0,0,0,0,0,0.4454,0.4361,0.4166,0.4168,0.4257,0.449,0.4492,0.4685,0.4709,0.4819,0,0.485,0,0.4888,0.4932,0.4933,0,0,0,0.4266,0.4341,0.4402,0.4169,0.4259,0.4489,0.4387,0.4697,0.4724,0.4851,0.4856,0.4871,0.4895,0.4934,0.4937,0.5525,0.5528,0,0,0.4252,0.4221,0.4383,0.4418,0.4318,0.4379,0.4394,0.4712,0.4744,0.4858,0.488,0.4901,0.4937,0.4941,0.5522,0.5526,0,0,0,0.4208,0.4212,0.4263,0.4402,0.4438,0.4386,0.4403,0.473,0.4746,0.4885,0.4906,0.494,0.4945,0.5518,0.5523,0.5707,0,0,0,0.42,0.4185,0.4256,0.4242,0.443,0.4574,0.4413,0.4723,0.476,0.4904,0.494,0.4949,0.5515,0.5521,0.5694,0.565,0,0,0,0.4155,0.4181,0.4205,0.4239,0.4336,0.4569,0.4603,0.4731,0.4775,0.4934,0.495,0.5512,0.552,0.5683,0.5636,0.5728,0,0,0,0.4119,0.4289,0.4204,0.4424,0.4333,0.4672,0.4601,0.4816,0.4963,0.4942,0.5515,0.5523,0.5679,0.5628,0.5719,0.5572,0.5599,0,0,0.4342,0.4314,0.4456,0.4389,0.4761,0.464,0.5052,0.5144,0.5124,0.5411,0.5425,0.5698,0.5635,0.5726,0.6017,0.6029,0,0,0,0.4537,0.4645,0.4741,0.4918,0.507,0.5218,0.5341,0.5385,0.5576,0.5244,0.5804,0.5758,0.5808,0.5707,0.5722,0.5427,0.5559,0.5558,0.5557,0.4823,0.4921,0.5204,0.5369,0.5523,0.5679,0.5776,0.5863,0.5882,0.5983,0.5992,0.6283,0.6191,0.6196,0.5901,0.6154,0.6155,0.6156,0.6156,0.5258,0.5428,0.5501,0.5781,0.5865,0.6111,0.6242,0.6221,0.6392,0.6316,0.636,0.6009,0.6219,0.59,0.617,0.6167,0.6166,0.6164,0.6163,0.5517,0.5588,0.5712,0.5951,0.6106,0.6208,0.6299,0.638,0.6468,0.6519,0.6382,0.6376,0.6007,0.6571,0.6571,0.6572,0.6572,0.6572,0.6572,0.5665,0.58,0.5871,0.6056,0.6078,0.6149,0.6294,0.6388,0.6484,0.65,0.65,0.6091,0.6406,0.6288,0.6578,0.6577,0.6576,0.6576,0.6575,0.5903,0.5784,0.5925,0.594,0.6,0.5913,0.6148,0.6267,0.6435,0.6459,0.6123,0.6506,0.6393,0.638,0.6263,0.6528,0.6528,0.6528,0.6528,0.5862,0.5881,0.5824,0.58,0.5819,0.5795,0.5659,0.5779,0.5907,0.5857,0.5945,0.5814,0.5828,0.5673,0.5676,0.5542,0.5618,0.5617,0.5615,0.5826,0.5826,0.5702,0.5681,0.5679,0.5566,0.5189,0.4958,0.527,0.5553,0.5575,0.5614,0.5397,0.5443,0.5175,0.5203,0.4975,0,0]},{"header":{"parameterUnit":"m.s-1","parameterCategory":2,"la1":30.2992,"la2":30.254,"lo1":-89.0895,"lo2":-89.0443,"dy":0.0025,"dx":0.0025,"nx":19,"ny":19,"refTime":"2026-03-24T03:00:00:Z","depth":"0","parameterNumber":3,"parameterNumberName":"V-component_of_CURRENTS"},"data":[0,0,0,-0.0139,-0.014,-0.0253,-0.0254,-0.0442,-0.0444,0,0,0,0,0,0,0,0,0,0,0,-0.0099,-0.01,-0.0139,-0.014,-0.0253,-0.0254,-0.0442,-0.0444,0,0,0,0,0,0,0,0,0,0,0,-0.0099,-0.01,-0.01,-0.0141,-0.0252,-0.0254,-0.0442,-0.0353,0,0,0,0,0,0,0,0,0,0,-0.0242,-0.0193,-0.01,-0.01,-0.0141,-0.0252,-0.0254,-0.0349,-0.0359,-0.0395,0,-0.039,0,-0.0409,-0.0455,-0.0455,0,0,0,-0.0172,-0.0184,-0.0203,-0.01,-0.0142,-0.0252,-0.0211,-0.0354,-0.0366,-0.0408,-0.0392,-0.0399,-0.0412,-0.0456,-0.0456,-0.037,-0.0368,0,0,-0.0165,-0.0141,-0.0195,-0.0209,-0.0143,-0.0207,-0.0214,-0.0361,-0.0369,-0.0393,-0.0404,-0.0415,-0.0457,-0.0458,-0.0372,-0.037,0,0,0,-0.0127,-0.0136,-0.0152,-0.0202,-0.0211,-0.0209,-0.0218,-0.0363,-0.0363,-0.0406,-0.0417,-0.0458,-0.046,-0.0375,-0.0371,-0.0144,0,0,0,-0.0124,-0.0111,-0.0148,-0.0138,-0.0207,-0.0283,-0.0216,-0.0354,-0.0371,-0.0416,-0.0458,-0.0461,-0.0377,-0.0373,-0.0156,-0.004,0,0,0,-0.0099,-0.0109,-0.011,-0.0135,-0.0169,-0.0281,-0.0292,-0.0358,-0.0376,-0.0455,-0.0462,-0.0379,-0.0374,-0.0166,-0.0058,0.0108,0,0,0,-0.0088,-0.0059,-0.011,-0.0088,-0.0167,-0.018,-0.0292,-0.0344,-0.0402,-0.0459,-0.0377,-0.0372,-0.0169,-0.0069,0.0097,0.0252,0.0317,0,0,-0.0038,-0.0052,-0.0038,-0.0086,-0.0052,-0.0169,-0.0102,-0.0238,-0.0324,-0.0344,-0.0342,-0.0152,-0.0059,0.0106,0.0548,0.0605,0,0,0,-0.0015,0.0009,0.0003,0.0009,-0.003,0.0015,-0.0117,-0.0116,-0.0103,-0.0327,-0.0111,-0.0059,0.0038,0.0108,0.0155,-0.0064,-0.0348,-0.0348,-0.0349,0.0089,0.0079,0.0142,0.0147,0.0151,0.0131,0.0185,0.0181,0.0029,0.0117,0.0156,0.048,0.0561,0.0597,0.037,0.0181,0.0182,0.0183,0.0183,0.0226,0.0293,0.0296,0.0354,0.039,0.0434,0.0505,0.0469,0.0602,0.0432,0.0514,0.0382,0.0661,0.04,0.0199,0.0196,0.0194,0.0193,0.0191,0.0347,0.039,0.0408,0.0506,0.0616,0.0635,0.0857,0.0848,0.0834,0.0932,0.0969,0.0965,0.0708,0.0958,0.096,0.0961,0.0962,0.0963,0.0964,0.0471,0.0505,0.0573,0.0657,0.0728,0.0875,0.1048,0.1183,0.1304,0.1264,0.1264,0.083,0.0716,0.0653,0.0984,0.098,0.0978,0.0976,0.0975,0.0606,0.059,0.0706,0.0772,0.0968,0.1242,0.1373,0.1701,0.1788,0.1889,0.1391,0.144,0.1384,0.1345,0.1298,0.1776,0.1776,0.1776,0.1776,0.0666,0.0677,0.0826,0.0972,0.1209,0.1428,0.1935,0.2159,0.1994,0.1826,0.1593,0.1404,0.1381,0.1306,0.1269,0.1211,0.1657,0.1656,0.1655,0.0707,0.0753,0.088,0.1038,0.1318,0.1697,0.2212,0.2545,0.2128,0.1615,0.1267,0.1273,0.0941,0.0923,0.0747,0.0711,0.0594,0,0]}],[{"header":{"parameterUnit":"m.s-1","parameterCategory":2,"la1":30.2992,"la2":30.254,"lo1":-89.0895,"lo2":-89.0443,"dy":0.0025,"dx":0.0025,"nx":19,"ny":19,"refTime":"2026-03-24T03:00:00:Z","depth":"2","parameterNumber":2,"parameterNumberName":"U-component_of_CURRENTS"},"data":[0,0,0,0.2975,0.2978,0.319,0.3191,0.3274,0.3274,0,0,0,0,0,0,0,0,0,0,0,0.2946,0.2948,0.2975,0.2979,0.319,0.3191,0.3274,0.3274,0,0,0,0,0,0,0,0,0,0,0,0.2945,0.2947,0.295,0.2979,0.319,0.3191,0.3274,0.3169,0,0,0,0,0,0,0,0,0,0,0.2991,0.297,0.2947,0.295,0.298,0.3189,0.3192,0.3167,0.3176,0.3114,0,0.317,0,0.3185,0.3272,0.3272,0,0,0,0.3012,0.2963,0.3015,0.295,0.2982,0.3189,0.3104,0.3174,0.3183,0.3125,0.3172,0.3175,0.3186,0.3272,0.3272,0.3697,0.3702,0,0,0.3,0.298,0.3009,0.3022,0.3061,0.3097,0.311,0.3182,0.3199,0.3172,0.3177,0.3187,0.3272,0.3272,0.3693,0.3698,0,0,0,0.2944,0.2972,0.3028,0.3018,0.305,0.3102,0.3118,0.3198,0.3217,0.3178,0.3188,0.3272,0.3271,0.3687,0.3695,0.3682,0,0,0,0.2939,0.2936,0.3023,0.3012,0.3051,0.3146,0.3132,0.3215,0.3222,0.3188,0.3272,0.3271,0.3682,0.3691,0.367,0.3725,0,0,0,0.2932,0.2934,0.2967,0.301,0.3082,0.3147,0.3173,0.3219,0.3224,0.3272,0.3271,0.3678,0.3689,0.366,0.3709,0.3846,0,0,0,0.2891,0.2953,0.2968,0.3066,0.308,0.3225,0.3174,0.3269,0.3322,0.3272,0.3683,0.3694,0.3657,0.37,0.3836,0.3487,0.3506,0,0,0.2937,0.2959,0.3023,0.304,0.317,0.3197,0.339,0.3419,0.35,0.3635,0.3648,0.3674,0.3708,0.3844,0.4157,0.4152,0,0,0,0.3018,0.3083,0.3133,0.3216,0.3291,0.3464,0.349,0.36,0.3836,0.3581,0.3916,0.3945,0.4023,0.3802,0.3806,0.3749,0.3748,0.3746,0.3745,0.3182,0.3192,0.3286,0.3363,0.3472,0.3629,0.3784,0.3983,0.3945,0.4171,0.4107,0.4456,0.4229,0.4225,0.4281,0.4281,0.4281,0.4281,0.4281,0.3282,0.3306,0.3385,0.3467,0.3627,0.3805,0.412,0.4188,0.4457,0.4447,0.4519,0.4021,0.4224,0.4285,0.4285,0.4284,0.4284,0.4283,0.4283,0.3292,0.3283,0.3328,0.3406,0.3663,0.3938,0.415,0.4365,0.458,0.4612,0.4442,0.4436,0.4342,0.4667,0.4668,0.4669,0.467,0.467,0.4671,0.3241,0.3255,0.3276,0.3383,0.35,0.3797,0.4208,0.4354,0.4527,0.4531,0.4527,0.4589,0.4576,0.4379,0.4685,0.4683,0.4681,0.4679,0.4678,0.3161,0.3145,0.3145,0.3183,0.3437,0.3527,0.3926,0.4166,0.4368,0.4382,0.4469,0.4469,0.4453,0.4448,0.4259,0.4516,0.4517,0.4516,0.4516,0.3131,0.3105,0.3104,0.3085,0.3221,0.3428,0.3472,0.3637,0.3958,0.4021,0.4043,0.3803,0.3819,0.3757,0.3769,0.3561,0.3639,0.3637,0.3636,0.3102,0.3101,0.302,0.2968,0.3098,0.3269,0.3193,0.3066,0.3255,0.3608,0.3958,0.4444,0.4138,0.4146,0.4085,0.409,0.377,0,0]},{"header":{"parameterUnit":"m.s-1","parameterCategory":2,"la1":30.2992,"la2":30.254,"lo1":-89.0895,"lo2":-89.0443,"dy":0.0025,"dx":0.0025,"nx":19,"ny":19,"refTime":"2026-03-24T03:00:00:Z","depth":"2","parameterNumber":3,"parameterNumberName":"V-component_of_CURRENTS"},"data":[0,0,0,0.0095,0.0095,0.0035,0.0034,-0.0064,-0.0064,0,0,0,0,0,0,0,0,0,0,0,0.0088,0.0088,0.0095,0.0095,0.0035,0.0034,-0.0064,-0.0064,0,0,0,0,0,0,0,0,0,0,0,0.0088,0.0088,0.0087,0.0095,0.0035,0.0034,-0.0064,-0.0023,0,0,0,0,0,0,0,0,0,0,0.0033,0.0048,0.0088,0.0087,0.0095,0.0035,0.0034,-0.0022,-0.0026,-0.0029,0,-0.003,0,-0.0017,-0.0067,-0.0067,0,0,0,0.0052,0.0051,0.0046,0.0087,0.0095,0.0036,0.005,-0.0024,-0.0029,-0.0034,-0.0031,-0.0033,-0.0018,-0.0068,-0.0068,-0.0089,-0.0089,0,0,0.0055,0.0062,0.005,0.0044,0.0091,0.0052,0.0049,-0.0027,-0.0034,-0.0031,-0.0035,-0.002,-0.0068,-0.0068,-0.0089,-0.0089,0,0,0,0.0094,0.0065,0.006,0.0047,0.0056,0.0052,0.0047,-0.0032,-0.003,-0.0036,-0.0021,-0.0068,-0.0069,-0.009,-0.0089,0.0087,0,0,0,0.0094,0.0091,0.0062,0.0063,0.0058,0.0018,0.0045,-0.0026,-0.0033,-0.0021,-0.0068,-0.0069,-0.009,-0.009,0.0082,0.0149,0,0,0,0.0088,0.0091,0.0089,0.0064,0.0063,0.0019,0.0014,-0.0028,-0.0021,-0.0068,-0.0069,-0.009,-0.009,0.0078,0.0141,0.0276,0,0,0,0.0089,0.0127,0.0089,0.0134,0.0064,0.0094,0.0014,0.0002,-0.0031,-0.0068,-0.009,-0.0089,0.0077,0.0136,0.0269,0.0366,0.0404,0,0,0.0149,0.0133,0.0164,0.0131,0.0205,0.0099,0.0158,0.0067,-0.0033,-0.0074,-0.0075,0.0084,0.014,0.0274,0.038,0.0418,0,0,0,0.0192,0.0211,0.022,0.0253,0.0253,0.0229,0.0163,0.0123,0.0051,-0.0042,0.0039,0.0067,0.0148,0.0191,0.022,-0.0088,-0.0088,-0.0088,-0.0088,0.0238,0.0272,0.0344,0.0364,0.0355,0.0336,0.0323,0.0246,0.0156,0.0129,0.018,0.0352,0.0396,0.042,0.0145,0.0145,0.0146,0.0146,0.0147,0.0368,0.0412,0.0435,0.0507,0.0482,0.0489,0.0429,0.0386,0.0435,0.0279,0.0351,0.0332,0.0463,0.016,0.0157,0.0156,0.0154,0.0153,0.0152,0.0426,0.0449,0.0521,0.0625,0.0629,0.0551,0.0719,0.065,0.0539,0.0644,0.0678,0.0675,0.0503,0.0683,0.0684,0.0685,0.0686,0.0686,0.0687,0.0435,0.0526,0.063,0.0715,0.077,0.0834,0.088,0.0986,0.0957,0.0864,0.0864,0.0533,0.0515,0.0531,0.0701,0.0698,0.0696,0.0695,0.0694,0.0507,0.0545,0.0721,0.0842,0.1063,0.1355,0.1348,0.1481,0.1492,0.1499,0.1007,0.0994,0.0953,0.0926,0.0949,0.1218,0.1218,0.1218,0.1218,0.0504,0.0557,0.0828,0.1117,0.1425,0.1615,0.1957,0.1864,0.1605,0.1332,0.1327,0.1214,0.1191,0.1152,0.112,0.1142,0.1462,0.1462,0.1462,0.0561,0.0629,0.0893,0.1223,0.1623,0.1965,0.2171,0.1975,0.155,0.1464,0.1292,0.1249,0.1061,0.1034,0.0945,0.0906,0.0928,0,0]}],[{"header":{"parameterUnit":"m.s-1","parameterCategory":2,"la1":30.2992,"la2":30.254,"lo1":-89.0895,"lo2":-89.0443,"dy":0.0025,"dx":0.0025,"nx":19,"ny":19,"refTime":"2026-03-24T03:00:00:Z","depth":"4","parameterNumber":2,"parameterNumberName":"U-component_of_CURRENTS"},"data":[0,0,0,0.1468,0.147,0.1576,0.1577,0.1636,0.1636,0,0,0,0,0,0,0,0,0,0,0,0.1454,0.1455,0.1468,0.147,0.1576,0.1577,0.1636,0.1636,0,0,0,0,0,0,0,0,0,0,0,0.1453,0.1454,0.1456,0.1471,0.1576,0.1577,0.1636,0.1575,0,0,0,0,0,0,0,0,0,0,0.1482,0.1467,0.1454,0.1456,0.1471,0.1576,0.1577,0.1573,0.1579,0.1565,0,0.1604,0,0.161,0.1638,0.1638,0,0,0,0.1473,0.1463,0.1499,0.1456,0.1472,0.1576,0.1529,0.1577,0.1583,0.1572,0.1605,0.1607,0.1611,0.1638,0.1638,0.171,0.1711,0,0,0.1467,0.1458,0.1495,0.1504,0.1527,0.1526,0.1532,0.1582,0.1593,0.1605,0.1609,0.1612,0.1638,0.1639,0.171,0.171,0,0,0,0.1448,0.1454,0.1491,0.1502,0.1521,0.1529,0.1536,0.1591,0.1607,0.1609,0.1612,0.1639,0.1639,0.1709,0.171,0.1902,0,0,0,0.1445,0.1443,0.1489,0.1482,0.1521,0.1564,0.1545,0.1605,0.161,0.1612,0.1639,0.1639,0.1708,0.1709,0.1895,0.1916,0,0,0,0.1444,0.1441,0.1465,0.1482,0.1525,0.1563,0.1582,0.1607,0.1611,0.1638,0.1639,0.1708,0.1709,0.1889,0.1907,0.2007,0,0,0,0.1414,0.1411,0.1466,0.1475,0.1525,0.1566,0.1582,0.1627,0.1655,0.1639,0.1708,0.171,0.1888,0.1902,0.2001,0.1732,0,0,0,0.1374,0.1406,0.1411,0.1461,0.1472,0.155,0.1627,0.1684,0.1668,0.1685,0.1688,0.1897,0.1907,0.2006,0.1811,0,0,0,0,0.1373,0.1376,0.1389,0.1428,0.1484,0.1584,0.1654,0.1735,0.1838,0.1691,0.187,0.1867,0.1926,0.175,0.1716,0.1716,0.1716,0.1716,0.1716,0.1248,0.131,0.1321,0.1406,0.1468,0.1629,0.1752,0.1869,0.1876,0.1973,0.2009,0.2179,0.2,0.2018,0.2019,0.202,0.2021,0.2022,0.2022,0.1158,0.1162,0.1296,0.1342,0.15,0.1615,0.1849,0.1962,0.2205,0.2156,0.2207,0.1941,0.204,0.2037,0.2034,0.2032,0.203,0.2029,0.2028,0.1033,0.1052,0.115,0.1288,0.1463,0.1649,0.1889,0.2114,0.2273,0.2414,0.2227,0.2286,0.2289,0.2477,0.2478,0.2479,0.2479,0.248,0.248,0.0871,0.0969,0.1054,0.124,0.1362,0.1587,0.1959,0.2123,0.2332,0.2356,0.2472,0.2331,0.2316,0.2312,0.2489,0.2487,0.2486,0.2485,0.2485,0.0718,0.0819,0.0899,0.1026,0.1308,0.149,0.184,0.2108,0.2304,0.2342,0.2323,0.2329,0.2221,0.2208,0.2196,0.2346,0.2343,0.234,0,0.0617,0.0671,0.0787,0.0921,0.1123,0.1398,0.1646,0.1885,0.2079,0.2018,0.2239,0.2204,0.2211,0.2069,0.2055,0.2027,0,0,0,0.0557,0.0591,0.0634,0.0787,0.1008,0.1356,0.1705,0.1756,0.2061,0.2137,0.227,0.2289,0.2339,0.2516,0.2362,0.2344,0.2328,0,0]},{"header":{"parameterUnit":"m.s-1","parameterCategory":2,"la1":30.2992,"la2":30.254,"lo1":-89.0895,"lo2":-89.0443,"dy":0.0025,"dx":0.0025,"nx":19,"ny":19,"refTime":"2026-03-24T03:00:00:Z","depth":"4","parameterNumber":3,"parameterNumberName":"V-component_of_CURRENTS"},"data":[0,0,0,0.0245,0.0246,0.0275,0.0275,0.0272,0.0272,0,0,0,0,0,0,0,0,0,0,0,0.0241,0.0241,0.0245,0.0246,0.0275,0.0275,0.0272,0.0272,0,0,0,0,0,0,0,0,0,0,0,0.0241,0.0241,0.0242,0.0246,0.0275,0.0275,0.0272,0.026,0,0,0,0,0,0,0,0,0,0,0.0236,0.0232,0.0241,0.0242,0.0246,0.0275,0.0275,0.0259,0.026,0.0249,0,0.0263,0,0.0265,0.0272,0.0271,0,0,0,0.0243,0.0232,0.0246,0.0242,0.0246,0.0275,0.0261,0.026,0.0261,0.025,0.0263,0.0263,0.0265,0.0271,0.0271,0.0301,0.0302,0,0,0.0241,0.0237,0.0246,0.0247,0.0265,0.026,0.0262,0.0261,0.0262,0.0263,0.0263,0.0265,0.0271,0.0271,0.0301,0.0302,0,0,0,0.0238,0.0235,0.025,0.0247,0.0254,0.0261,0.0263,0.0262,0.027,0.0263,0.0265,0.0271,0.0271,0.0301,0.0301,0.0405,0,0,0,0.0237,0.0234,0.025,0.0246,0.0255,0.0262,0.0264,0.027,0.027,0.0265,0.0271,0.0271,0.03,0.0301,0.0402,0.0475,0,0,0,0.0238,0.0234,0.0243,0.0246,0.026,0.0262,0.027,0.027,0.0271,0.0271,0.0271,0.03,0.0301,0.0398,0.0468,0.0435,0,0,0,0.0224,0.0274,0.0243,0.0303,0.026,0.0322,0.027,0.0306,0.0316,0.0271,0.03,0.0301,0.0397,0.0464,0.0432,0.0441,0,0,0,0.0288,0.0282,0.0322,0.0295,0.0396,0.0317,0.0393,0.0377,0.0321,0.0296,0.0297,0.0403,0.0467,0.0435,0.0499,0,0,0,0,0.0344,0.0392,0.0412,0.0459,0.0464,0.0489,0.0453,0.0415,0.0395,0.033,0.0394,0.0432,0.0407,0.0403,0.0306,0.0306,0.0306,0.0306,0.0306,0.049,0.0497,0.0585,0.061,0.0633,0.0608,0.0595,0.0533,0.0474,0.0469,0.0509,0.0552,0.0554,0.0483,0.0483,0.0484,0.0484,0.0484,0.0485,0.0658,0.0711,0.0725,0.0815,0.0806,0.0852,0.0756,0.0695,0.0629,0.0586,0.0554,0.0507,0.0495,0.0493,0.0491,0.049,0.0489,0.0489,0.0488,0.0778,0.079,0.0848,0.0945,0.1029,0.1005,0.1002,0.0905,0.0748,0.0733,0.0658,0.0602,0.0597,0.0697,0.0697,0.0697,0.0697,0.0698,0.0698,0.0846,0.0894,0.0982,0.1082,0.1162,0.1206,0.1149,0.1054,0.0897,0.0792,0.0761,0.0622,0.0615,0.0607,0.0701,0.07,0.07,0.07,0.0699,0.0919,0.0929,0.1069,0.1157,0.1305,0.1332,0.1304,0.1102,0.0993,0.0849,0.0773,0.0768,0.0718,0.0708,0.0701,0.0826,0.0827,0.0827,0,0.0929,0.0955,0.1107,0.1243,0.1342,0.1384,0.128,0.115,0.0941,0.0945,0.0929,0.0851,0.0844,0.0793,0.0784,0.0781,0,0,0,0.0921,0.0988,0.1073,0.1221,0.1357,0.1267,0.1231,0.1157,0.1016,0.089,0.0839,0.0836,0.0781,0.071,0.0621,0.0612,0.0594,0,0]}]]